Terminal Aerodrome Forecast
Issued by NWS Melbourne, FL

Home | Current Version | Previous Version | Text Only | Print | Product List | Glossary On
Versions: 1 2 3 4 5 6 7 8 9 10 11 12 13 14 15 16 17 18
027
FTUS42 KMLB 222327
TAFMLB
TAF
KMLB 222327Z 2300/2324 04011KT P6SM SCT025
     FM230600 06006KT P6SM VCSH SCT020 BKN035
     FM231400 12006KT P6SM VCSH SCT025 OVC040
     FM231800 18009KT 5SM SHRA BKN025
      TEMPO 2318/2322 2SM +SHRA BKN012=

USA.gov is the U.S. government's official web portal to all federal, state and local government web resources and services.